Time,TemperatureF,DewpointF,PressureIn,WindDirection,WindDirectionDegrees,WindSpeedMPH,WindSpeedGustMPH,Humidity,HourlyPrecipIn,Conditions,Clouds,dailyrainin,SoftwareType,DateUTC
2013-01-22 00:00:00,11.7,7.5,29.83,North,11,9.0,9.0,83,0.00,,,0.00,Wunderground v.1.15,2013-01-22 05:00:00,
2013-01-22 00:02:00,11.6,7.4,29.83,North,351,5.0,9.0,83,0.00,,,0.00,Wunderground v.1.15,2013-01-22 05:02:00,
2013-01-22 00:06:00,11.6,7.4,29.83,NNE,28,11.0,11.0,83,0.00,,,0.00,Wunderground v.1.15,2013-01-22 05:06:00,
2013-01-22 00:10:00,11.4,7.2,29.83,North,355,6.0,6.0,83,0.00,,,0.00,Wunderground v.1.15,2013-01-22 05:10:00,
2013-01-22 00:16:00,11.2,7.0,29.82,NW,309,9.0,10.0,83,0.00,,,0.00,Wunderground v.1.15,2013-01-22 05:16:00,
2013-01-22 00:21:00,11.2,7.0,29.82,NNW,340,6.0,6.0,83,0.00,,,0.00,Wunderground v.1.15,2013-01-22 05:21:00,
2013-01-22 00:27:00,11.2,7.3,29.82,North,350,6.0,10.0,84,0.00,,,0.00,Wunderground v.1.15,2013-01-22 05:27:00,
2013-01-22 00:33:00,11.4,7.5,29.82,North,349,3.0,10.0,84,0.00,,,0.00,Wunderground v.1.15,2013-01-22 05:33:00,
2013-01-22 00:39:00,11.4,7.5,29.82,North,355,7.0,10.0,84,0.00,,,0.00,Wunderground v.1.15,2013-01-22 05:39:00,
2013-01-22 00:45:00,11.4,7.5,29.82,NNE,13,7.0,7.0,84,0.00,,,0.00,Wunderground v.1.15,2013-01-22 05:45:00,
2013-01-22 00:50:00,11.2,7.0,29.82,North,5,6.0,6.0,83,0.00,,,0.00,Wunderground v.1.15,2013-01-22 05:50:00,
2013-01-22 00:56:00,11.1,6.9,29.81,NNE,29,5.0,6.0,83,0.00,,,0.00,Wunderground v.1.15,2013-01-22 05:56:00,
2013-01-22 01:02:00,10.9,6.8,29.81,NNE,18,0.0,10.0,83,0.00,,,0.00,Wunderground v.1.15,2013-01-22 06:02:00,
2013-01-22 01:07:00,10.7,6.3,29.81,North,11,7.0,10.0,82,0.00,,,0.00,Wunderground v.1.15,2013-01-22 06:07:00,
2013-01-22 01:13:00,10.7,6.3,29.81,North,360,2.0,10.0,82,0.00,,,0.00,Wunderground v.1.15,2013-01-22 06:13:00,
2013-01-22 01:19:00,10.5,6.1,29.81,North,5,3.0,10.0,82,0.00,,,0.00,Wunderground v.1.15,2013-01-22 06:19:00,
2013-01-22 01:25:00,10.5,6.1,29.81,North,355,2.0,6.0,82,0.00,,,0.00,Wunderground v.1.15,2013-01-22 06:25:00,
2013-01-22 01:30:00,10.4,5.7,29.82,North,5,9.0,9.0,81,0.00,,,0.00,Wunderground v.1.15,2013-01-22 06:30:00,
2013-01-22 01:36:00,10.2,5.5,29.82,North,5,5.0,9.0,81,0.00,,,0.00,Wunderground v.1.15,2013-01-22 06:36:00,
2013-01-22 01:42:00,10.0,5.3,29.82,NNW,347,1.0,4.0,81,0.00,,,0.00,Wunderground v.1.15,2013-01-22 06:42:00,
2013-01-22 01:48:00,10.0,5.3,29.82,North,360,3.0,9.0,81,0.00,,,0.00,Wunderground v.1.15,2013-01-22 06:48:00,
2013-01-22 01:53:00,10.0,5.3,29.82,North,5,0.0,5.0,81,0.00,,,0.00,Wunderground v.1.15,2013-01-22 06:53:00,
2013-01-22 01:59:00,10.2,5.8,29.83,North,5,1.0,5.0,82,0.00,,,0.00,Wunderground v.1.15,2013-01-22 06:59:00,
2013-01-22 02:04:00,10.2,5.8,29.83,North,9,4.0,8.0,82,0.00,,,0.00,Wunderground v.1.15,2013-01-22 07:04:00,
2013-01-22 02:09:00,10.2,5.8,29.83,North,5,3.0,11.0,82,0.00,,,0.00,Wunderground v.1.15,2013-01-22 07:09:00,
2013-01-22 02:14:00,10.2,5.5,29.83,North,360,4.0,12.0,81,0.00,,,0.00,Wunderground v.1.15,2013-01-22 07:14:00,
2013-01-22 02:19:00,10.2,5.5,29.83,NNE,13,3.0,12.0,81,0.00,,,0.00,Wunderground v.1.15,2013-01-22 07:19:00,
2013-01-22 02:24:00,10.2,5.5,29.83,North,9,4.0,9.0,81,0.00,,,0.00,Wunderground v.1.15,2013-01-22 07:24:00,
2013-01-22 02:29:00,10.0,5.3,29.83,North,9,2.0,9.0,81,0.00,,,0.00,Wunderground v.1.15,2013-01-22 07:29:00,
2013-01-22 02:34:00,10.0,5.3,29.83,North,5,10.0,11.0,81,0.00,,,0.00,Wunderground v.1.15,2013-01-22 07:34:00,
2013-01-22 02:39:00,9.9,5.2,29.83,North,9,5.0,11.0,81,0.00,,,0.00,Wunderground v.1.15,2013-01-22 07:39:00,
2013-01-22 02:44:00,9.9,5.2,29.83,North,5,7.0,7.0,81,0.00,,,0.00,Wunderground v.1.15,2013-01-22 07:44:00,
2013-01-22 02:49:00,9.9,5.2,29.83,NNE,17,3.0,9.0,81,0.00,,,0.00,Wunderground v.1.15,2013-01-22 07:49:00,
2013-01-22 02:54:00,9.9,5.2,29.83,North,9,4.0,8.0,81,0.00,,,0.00,Wunderground v.1.15,2013-01-22 07:54:00,
2013-01-22 02:59:00,9.9,5.2,29.83,North,9,2.0,8.0,81,0.00,,,0.00,Wunderground v.1.15,2013-01-22 07:59:00,
2013-01-22 03:04:00,9.9,5.2,29.83,North,11,9.0,9.0,81,0.00,,,0.00,Wunderground v.1.15,2013-01-22 08:04:00,
2013-01-22 03:09:00,10.0,5.3,29.83,North,9,4.0,9.0,81,0.00,,,0.00,Wunderground v.1.15,2013-01-22 08:09:00,
2013-01-22 03:14:00,10.0,5.6,29.83,North,9,1.0,4.0,82,0.00,,,0.00,Wunderground v.1.15,2013-01-22 08:14:00,
2013-01-22 03:19:00,10.0,5.6,29.83,North,5,2.0,7.0,82,0.00,,,0.00,Wunderground v.1.15,2013-01-22 08:19:00,
2013-01-22 03:25:00,10.2,5.8,29.83,North,5,2.0,5.0,82,0.00,,,0.00,Wunderground v.1.15,2013-01-22 08:25:00,
2013-01-22 03:30:00,10.2,5.8,29.83,North,360,0.0,2.0,82,0.00,,,0.00,Wunderground v.1.15,2013-01-22 08:30:00,
2013-01-22 03:35:00,10.4,6.0,29.83,North,360,0.0,4.0,82,0.00,,,0.00,Wunderground v.1.15,2013-01-22 08:35:00,
2013-01-22 03:40:00,10.4,6.3,29.83,North,360,2.0,2.0,83,0.00,,,0.00,Wunderground v.1.15,2013-01-22 08:40:00,
2013-01-22 03:45:00,10.4,6.3,29.84,North,360,2.0,3.0,83,0.00,,,0.00,Wunderground v.1.15,2013-01-22 08:45:00,
2013-01-22 03:50:00,10.2,6.1,29.84,North,360,2.0,4.0,83,0.00,,,0.00,Wunderground v.1.15,2013-01-22 08:50:00,
2013-01-22 03:55:00,10.2,5.8,29.84,North,360,3.0,4.0,82,0.00,,,0.00,Wunderground v.1.15,2013-01-22 08:55:00,
2013-01-22 04:00:00,10.2,6.1,29.84,North,360,2.0,2.0,83,0.00,,,0.00,Wunderground v.1.15,2013-01-22 09:00:00,
2013-01-22 04:05:00,10.2,6.1,29.84,North,5,1.0,7.0,83,0.00,,,0.00,Wunderground v.1.15,2013-01-22 09:05:00,
2013-01-22 04:10:00,10.2,6.1,29.84,North,5,4.0,4.0,83,0.00,,,0.00,Wunderground v.1.15,2013-01-22 09:10:00,
2013-01-22 04:15:00,10.2,6.1,29.84,North,5,3.0,6.0,83,0.00,,,0.00,Wunderground v.1.15,2013-01-22 09:15:00,
2013-01-22 04:20:00,10.2,5.8,29.84,North,5,1.0,3.0,82,0.00,,,0.00,Wunderground v.1.15,2013-01-22 09:20:00,
2013-01-22 04:25:00,10.2,5.8,29.84,North,5,2.0,4.0,82,0.00,,,0.00,Wunderground v.1.15,2013-01-22 09:25:00,
2013-01-22 04:30:00,10.0,5.6,29.84,NE,52,3.0,6.0,82,0.00,,,0.00,Wunderground v.1.15,2013-01-22 09:30:00,
2013-01-22 04:36:00,10.0,5.6,29.84,ENE,57,1.0,6.0,82,0.00,,,0.00,Wunderground v.1.15,2013-01-22 09:36:00,
2013-01-22 04:41:00,9.9,5.5,29.84,ENE,57,0.0,2.0,82,0.00,,,0.00,Wunderground v.1.15,2013-01-22 09:41:00,
2013-01-22 04:46:00,9.9,5.5,29.84,ENE,57,2.0,2.0,82,0.00,,,0.00,Wunderground v.1.15,2013-01-22 09:46:00,
2013-01-22 04:51:00,10.0,5.6,29.84,ENE,57,0.0,1.0,82,0.00,,,0.00,Wunderground v.1.15,2013-01-22 09:51:00,
2013-01-22 04:56:00,10.0,5.6,29.84,ENE,57,0.0,1.0,82,0.00,,,0.00,Wunderground v.1.15,2013-01-22 09:56:00,
2013-01-22 05:01:00,9.9,5.2,29.84,ENE,57,0.0,2.0,81,0.00,,,0.00,Wunderground v.1.15,2013-01-22 10:01:00,
2013-01-22 05:06:00,9.9,5.2,29.84,ENE,57,2.0,2.0,81,0.00,,,0.00,Wunderground v.1.15,2013-01-22 10:06:00,
2013-01-22 05:11:00,9.9,5.2,29.84,ENE,57,1.0,2.0,81,0.00,,,0.00,Wunderground v.1.15,2013-01-22 10:11:00,
2013-01-22 05:16:00,9.9,5.0,29.84,ENE,57,1.0,2.0,80,0.00,,,0.00,Wunderground v.1.15,2013-01-22 10:16:00,
2013-01-22 05:21:00,9.9,5.0,29.84,ENE,57,0.0,0.0,80,0.00,,,0.00,Wunderground v.1.15,2013-01-22 10:21:00,
2013-01-22 05:26:00,9.9,5.0,29.85,ENE,57,0.0,1.0,80,0.00,,,0.00,Wunderground v.1.15,2013-01-22 10:26:00,
2013-01-22 05:31:00,9.9,5.0,29.85,ENE,57,0.0,0.0,80,0.00,,,0.00,Wunderground v.1.15,2013-01-22 10:31:00,
2013-01-22 05:36:00,9.9,5.0,29.85,ENE,57,0.0,2.0,80,0.00,,,0.00,Wunderground v.1.15,2013-01-22 10:36:00,
2013-01-22 05:41:00,9.9,5.0,29.85,ENE,57,0.0,0.0,80,0.00,,,0.00,Wunderground v.1.15,2013-01-22 10:41:00,
2013-01-22 05:46:00,9.7,4.5,29.85,ENE,57,0.0,0.0,79,0.00,,,0.00,Wunderground v.1.15,2013-01-22 10:46:00,
2013-01-22 05:51:00,9.7,4.5,29.85,ENE,57,0.0,0.0,79,0.00,,,0.00,Wunderground v.1.15,2013-01-22 10:51:00,
2013-01-22 05:56:00,9.7,4.8,29.85,ENE,57,0.0,0.0,80,0.00,,,0.00,Wunderground v.1.15,2013-01-22 10:56:00,
2013-01-22 06:01:00,9.5,4.6,29.85,ENE,57,0.0,0.0,80,0.00,,,0.00,Wunderground v.1.15,2013-01-22 11:01:00,
2013-01-22 06:06:00,9.3,4.4,29.85,ENE,57,0.0,4.0,80,0.00,,,0.00,Wunderground v.1.15,2013-01-22 11:06:00,
2013-01-22 06:11:00,9.3,4.6,29.86,ENE,57,0.0,2.0,81,0.00,,,0.00,Wunderground v.1.15,2013-01-22 11:11:00,
2013-01-22 06:17:00,9.2,4.6,29.86,ENE,57,1.0,3.0,81,0.00,,,0.00,Wunderground v.1.15,2013-01-22 11:17:00,
2013-01-22 06:22:00,9.2,4.6,29.86,ENE,57,1.0,2.0,81,0.00,,,0.00,Wunderground v.1.15,2013-01-22 11:22:00,
2013-01-22 06:27:00,9.0,4.4,29.86,ENE,58,3.0,4.0,81,0.00,,,0.00,Wunderground v.1.15,2013-01-22 11:27:00,
2013-01-22 06:32:00,9.0,4.6,29.86,ENE,58,0.0,3.0,82,0.00,,,0.00,Wunderground v.1.15,2013-01-22 11:32:00,
2013-01-22 06:37:00,9.0,4.6,29.86,ENE,60,3.0,4.0,82,0.00,,,0.00,Wunderground v.1.15,2013-01-22 11:37:00,
2013-01-22 06:42:00,9.0,4.6,29.87,ENE,67,4.0,4.0,82,0.00,,,0.00,Wunderground v.1.15,2013-01-22 11:42:00,
2013-01-22 06:47:00,9.0,4.6,29.87,ENE,68,2.0,4.0,82,0.00,,,0.00,Wunderground v.1.15,2013-01-22 11:47:00,
2013-01-22 06:52:00,9.0,4.6,29.87,ENE,68,2.0,3.0,82,0.00,,,0.00,Wunderground v.1.15,2013-01-22 11:52:00,
2013-01-22 06:57:00,9.2,4.8,29.87,ENE,68,1.0,3.0,82,0.00,,,0.00,Wunderground v.1.15,2013-01-22 11:57:00,
2013-01-22 07:02:00,9.2,4.8,29.87,ENE,68,1.0,1.0,82,0.00,,,0.00,Wunderground v.1.15,2013-01-22 12:02:00,
2013-01-22 07:07:00,9.2,4.8,29.87,ENE,68,3.0,3.0,82,0.00,,,0.00,Wunderground v.1.15,2013-01-22 12:07:00,
2013-01-22 07:12:00,9.3,4.9,29.88,ENE,68,1.0,3.0,82,0.00,,,0.00,Wunderground v.1.15,2013-01-22 12:12:00,
2013-01-22 07:18:00,9.3,4.9,29.88,ENE,69,0.0,5.0,82,0.00,,,0.00,Wunderground v.1.15,2013-01-22 12:18:00,
2013-01-22 07:23:00,9.5,5.1,29.88,ENE,69,0.0,2.0,82,0.00,,,0.00,Wunderground v.1.15,2013-01-22 12:23:00,
2013-01-22 07:28:00,9.5,5.1,29.89,ENE,69,2.0,3.0,82,0.00,,,0.00,Wunderground v.1.15,2013-01-22 12:28:00,
2013-01-22 07:33:00,9.7,5.3,29.89,ENE,69,1.0,4.0,82,0.00,,,0.00,Wunderground v.1.15,2013-01-22 12:33:00,
2013-01-22 07:38:00,9.7,5.3,29.89,ENE,70,0.0,5.0,82,0.00,,,0.00,Wunderground v.1.15,2013-01-22 12:38:00,
2013-01-22 07:43:00,9.9,5.5,29.89,ENE,74,1.0,6.0,82,0.00,,,0.00,Wunderground v.1.15,2013-01-22 12:43:00,
2013-01-22 07:48:00,9.9,5.5,29.89,ENE,74,1.0,6.0,82,0.00,,,0.00,Wunderground v.1.15,2013-01-22 12:48:00,
2013-01-22 07:53:00,9.9,5.5,29.89,ENE,74,2.0,2.0,82,0.00,,,0.00,Wunderground v.1.15,2013-01-22 12:53:00,
2013-01-22 07:58:00,9.9,5.2,29.90,ENE,75,0.0,4.0,81,0.00,,,0.00,Wunderground v.1.15,2013-01-22 12:58:00,
2013-01-22 08:03:00,10.0,5.3,29.90,ENE,75,0.0,2.0,81,0.00,,,0.00,Wunderground v.1.15,2013-01-22 13:03:00,
2013-01-22 08:08:00,10.0,5.3,29.90,ENE,75,2.0,4.0,81,0.00,,,0.00,Wunderground v.1.15,2013-01-22 13:08:00,
2013-01-22 08:13:00,10.0,5.3,29.90,ENE,76,3.0,4.0,81,0.00,,,0.00,Wunderground v.1.15,2013-01-22 13:13:00,
2013-01-22 08:18:00,10.0,5.3,29.90,ENE,77,2.0,5.0,81,0.00,,,0.00,Wunderground v.1.15,2013-01-22 13:18:00,
2013-01-22 08:23:00,10.0,5.3,29.90,ENE,78,2.0,5.0,81,0.00,,,0.00,Wunderground v.1.15,2013-01-22 13:23:00,
2013-01-22 08:29:00,10.2,5.5,29.90,East,86,3.0,7.0,81,0.00,,,0.00,Wunderground v.1.15,2013-01-22 13:29:00,
2013-01-22 08:34:00,10.2,5.5,29.90,East,93,4.0,5.0,81,0.00,,,0.00,Wunderground v.1.15,2013-01-22 13:34:00,
2013-01-22 08:39:00,10.4,5.7,29.90,East,93,3.0,5.0,81,0.00,,,0.00,Wunderground v.1.15,2013-01-22 13:39:00,
2013-01-22 08:44:00,10.4,5.5,29.91,East,99,0.0,4.0,80,0.00,,,0.00,Wunderground v.1.15,2013-01-22 13:44:00,
2013-01-22 08:49:00,10.4,5.5,29.91,ESE,108,1.0,5.0,80,0.00,,,0.00,Wunderground v.1.15,2013-01-22 13:49:00,
2013-01-22 08:54:00,10.5,5.5,29.91,ESE,108,1.0,4.0,80,0.00,,,0.00,Wunderground v.1.15,2013-01-22 13:54:00,
2013-01-22 08:59:00,10.7,5.7,29.91,ESE,109,2.0,4.0,80,0.00,,,0.00,Wunderground v.1.15,2013-01-22 13:59:00,
2013-01-22 09:04:00,10.7,5.7,29.91,ESE,109,3.0,4.0,80,0.00,,,0.00,Wunderground v.1.15,2013-01-22 14:04:00,
2013-01-22 09:09:00,10.7,5.7,29.91,ESE,109,0.0,4.0,80,0.00,,,0.00,Wunderground v.1.15,2013-01-22 14:09:00,
2013-01-22 09:14:00,11.1,6.1,29.91,ESE,109,0.0,2.0,80,0.00,,,0.00,Wunderground v.1.15,2013-01-22 14:14:00,
2013-01-22 09:19:00,11.4,6.4,29.91,ESE,109,0.0,2.0,80,0.00,,,0.00,Wunderground v.1.15,2013-01-22 14:19:00,
2013-01-22 09:24:00,11.6,6.3,29.91,ESE,109,0.0,0.0,79,0.00,,,0.00,Wunderground v.1.15,2013-01-22 14:24:00,
2013-01-22 09:29:00,11.6,6.3,29.92,ESE,109,0.0,1.0,79,0.00,,,0.00,Wunderground v.1.15,2013-01-22 14:29:00,
2013-01-22 09:34:00,11.9,6.6,29.92,ESE,109,0.0,0.0,79,0.00,,,0.00,Wunderground v.1.15,2013-01-22 14:34:00,
2013-01-22 09:39:00,12.3,7.0,29.92,ESE,109,0.0,1.0,79,0.00,,,0.00,Wunderground v.1.15,2013-01-22 14:39:00,
2013-01-22 09:44:00,12.6,7.3,29.92,ESE,109,0.0,1.0,79,0.00,,,0.00,Wunderground v.1.15,2013-01-22 14:44:00,
2013-01-22 09:49:00,12.9,7.3,29.92,ESE,109,1.0,2.0,78,0.00,,,0.00,Wunderground v.1.15,2013-01-22 14:49:00,
2013-01-22 09:54:00,12.9,7.3,29.92,ESE,109,0.0,4.0,78,0.00,,,0.00,Wunderground v.1.15,2013-01-22 14:54:00,
2013-01-22 09:59:00,12.9,7.3,29.92,ESE,109,0.0,4.0,78,0.00,,,0.00,Wunderground v.1.15,2013-01-22 14:59:00,
2013-01-22 10:04:00,13.3,8.0,29.92,ESE,109,0.0,1.0,79,0.00,,,0.00,Wunderground v.1.15,2013-01-22 15:04:00,
2013-01-22 10:09:00,13.3,7.7,29.92,ESE,109,0.0,2.0,78,0.00,,,0.00,Wunderground v.1.15,2013-01-22 15:09:00,
2013-01-22 10:14:00,13.3,7.7,29.92,ESE,109,0.0,1.0,78,0.00,,,0.00,Wunderground v.1.15,2013-01-22 15:14:00,
2013-01-22 10:19:00,13.3,7.4,29.92,ESE,109,0.0,2.0,77,0.00,,,0.00,Wunderground v.1.15,2013-01-22 15:19:00,
2013-01-22 10:24:00,13.6,7.7,29.92,ESE,109,0.0,1.0,77,0.00,,,0.00,Wunderground v.1.15,2013-01-22 15:24:00,
2013-01-22 10:29:00,13.8,7.9,29.92,ESE,109,0.0,1.0,77,0.00,,,0.00,Wunderground v.1.15,2013-01-22 15:29:00,
2013-01-22 10:34:00,13.8,7.6,29.92,ESE,109,0.0,1.0,76,0.00,,,0.00,Wunderground v.1.15,2013-01-22 15:34:00,
2013-01-22 10:40:00,14.1,7.9,29.92,ESE,109,3.0,3.0,76,0.00,,,0.00,Wunderground v.1.15,2013-01-22 15:40:00,
2013-01-22 10:45:00,13.8,7.6,29.92,ESE,109,2.0,3.0,76,0.00,,,0.00,Wunderground v.1.15,2013-01-22 15:45:00,
2013-01-22 10:50:00,13.3,6.9,29.92,ESE,108,0.0,1.0,75,0.00,,,0.00,Wunderground v.1.15,2013-01-22 15:50:00,
2013-01-22 10:55:00,13.6,7.7,29.92,ESE,109,2.0,2.0,77,0.00,,,0.00,Wunderground v.1.15,2013-01-22 15:55:00,
2013-01-22 11:00:00,13.3,6.6,29.91,ESE,108,0.0,0.0,74,0.00,,,0.00,Wunderground v.1.15,2013-01-22 16:00:00,
2013-01-22 11:05:00,13.3,6.6,29.91,ESE,108,0.0,0.0,74,0.00,,,0.00,Wunderground v.1.15,2013-01-22 16:05:00,
2013-01-22 11:10:00,13.6,6.5,29.91,ESE,108,0.0,0.0,73,0.00,,,0.00,Wunderground v.1.15,2013-01-22 16:10:00,
2013-01-22 11:15:00,13.8,6.7,29.91,ESE,109,0.0,0.0,73,0.00,,,0.00,Wunderground v.1.15,2013-01-22 16:15:00,
2013-01-22 11:20:00,14.1,6.4,29.91,ESE,108,3.0,3.0,71,0.00,,,0.00,Wunderground v.1.15,2013-01-22 16:20:00,
2013-01-22 11:25:00,13.8,6.4,29.91,ESE,108,0.0,3.0,72,0.00,,,0.00,Wunderground v.1.15,2013-01-22 16:25:00,
2013-01-22 11:30:00,13.6,6.2,29.91,East,99,3.0,4.0,72,0.00,,,0.00,Wunderground v.1.15,2013-01-22 16:30:00,
2013-01-22 11:35:00,13.6,5.9,29.91,East,98,0.0,4.0,71,0.00,,,0.00,Wunderground v.1.15,2013-01-22 16:35:00,
2013-01-22 11:40:00,14.6,6.9,29.91,East,98,4.0,4.0,71,0.00,,,0.00,Wunderground v.1.15,2013-01-22 16:40:00,
2013-01-22 11:45:00,14.1,5.5,29.91,East,94,3.0,5.0,68,0.00,,,0.00,Wunderground v.1.15,2013-01-22 16:45:00,
2013-01-22 11:50:00,14.0,6.0,29.91,East,92,0.0,2.0,70,0.00,,,0.00,Wunderground v.1.15,2013-01-22 16:50:00,
2013-01-22 11:55:00,14.1,5.8,29.91,East,91,0.0,4.0,69,0.00,,,0.00,Wunderground v.1.15,2013-01-22 16:55:00,
2013-01-22 12:00:00,14.6,7.5,29.90,ENE,67,0.0,1.0,73,0.00,,,0.00,Wunderground v.1.15,2013-01-22 17:00:00,
2013-01-22 12:05:00,15.6,8.5,29.90,NE,51,0.0,4.0,73,0.00,,,0.00,Wunderground v.1.15,2013-01-22 17:05:00,
2013-01-22 12:10:00,16.2,8.8,29.90,NE,51,0.0,1.0,72,0.00,,,0.00,Wunderground v.1.15,2013-01-22 17:10:00,
2013-01-22 12:15:00,16.7,9.2,29.90,NE,51,0.0,4.0,72,0.00,,,0.00,Wunderground v.1.15,2013-01-22 17:15:00,
2013-01-22 12:20:00,16.5,8.4,29.90,NNW,333,4.0,6.0,70,0.00,,,0.00,Wunderground v.1.15,2013-01-22 17:20:00,
2013-01-22 12:25:00,16.4,8.9,29.90,NNW,333,1.0,6.0,72,0.00,,,0.00,Wunderground v.1.15,2013-01-22 17:25:00,
2013-01-22 12:30:00,16.5,9.0,29.90,NNW,333,3.0,4.0,72,0.00,,,0.00,Wunderground v.1.15,2013-01-22 17:30:00,
2013-01-22 12:35:00,16.7,9.8,29.90,NNW,333,0.0,4.0,74,0.00,,,0.00,Wunderground v.1.15,2013-01-22 17:35:00,
2013-01-22 12:40:00,15.9,8.8,29.90,NNW,340,0.0,2.0,73,0.00,,,0.00,Wunderground v.1.15,2013-01-22 17:40:00,
2013-01-22 12:45:00,15.9,9.1,29.90,NNW,342,1.0,5.0,74,0.00,,,0.00,Wunderground v.1.15,2013-01-22 17:45:00,
2013-01-22 12:50:00,15.2,8.1,29.90,NNE,16,6.0,7.0,73,0.00,,,0.00,Wunderground v.1.15,2013-01-22 17:50:00,
2013-01-22 12:55:00,15.1,8.9,29.89,NNE,19,1.0,7.0,76,0.00,,,0.00,Wunderground v.1.15,2013-01-22 17:55:00,
2013-01-22 13:00:00,15.2,8.7,29.89,NNE,26,5.0,6.0,75,0.00,,,0.00,Wunderground v.1.15,2013-01-22 18:00:00,
2013-01-22 13:05:00,14.9,8.4,29.89,NNE,24,2.0,6.0,75,0.00,,,0.00,Wunderground v.1.15,2013-01-22 18:05:00,
2013-01-22 13:10:00,15.4,8.6,29.90,NNE,24,0.0,2.0,74,0.00,,,0.00,Wunderground v.1.15,2013-01-22 18:10:00,
2013-01-22 13:15:00,14.9,7.8,29.90,NNE,22,1.0,6.0,73,0.00,,,0.00,Wunderground v.1.15,2013-01-22 18:15:00,
2013-01-22 13:20:00,14.8,8.0,29.90,NNE,22,1.0,2.0,74,0.00,,,0.00,Wunderground v.1.15,2013-01-22 18:20:00,
2013-01-22 13:25:00,14.6,7.8,29.90,NNE,19,4.0,6.0,74,0.00,,,0.00,Wunderground v.1.15,2013-01-22 18:25:00,
2013-01-22 13:30:00,14.9,8.1,29.90,NNE,16,1.0,2.0,74,0.00,,,0.00,Wunderground v.1.15,2013-01-22 18:30:00,
2013-01-22 13:35:00,15.7,8.3,29.90,North,9,0.0,5.0,72,0.00,,,0.00,Wunderground v.1.15,2013-01-22 18:35:00,
2013-01-22 13:40:00,15.9,8.2,29.90,North,360,4.0,4.0,71,0.00,,,0.00,Wunderground v.1.15,2013-01-22 18:40:00,
2013-01-22 13:45:00,15.6,7.6,29.90,North,349,3.0,9.0,70,0.00,,,0.00,Wunderground v.1.15,2013-01-22 18:45:00,
2013-01-22 13:50:00,15.2,7.5,29.90,NNW,347,3.0,4.0,71,0.00,,,0.00,Wunderground v.1.15,2013-01-22 18:50:00,
2013-01-22 13:55:00,14.3,6.9,29.92,North,355,6.0,11.0,72,0.00,,,0.00,Wunderground v.1.15,2013-01-22 18:55:00,
2013-01-22 14:00:00,13.1,6.4,29.92,NNW,343,5.0,5.0,74,0.00,,,0.00,Wunderground v.1.15,2013-01-22 19:00:00,
2013-01-22 14:05:00,12.3,6.2,29.92,North,355,5.0,13.0,76,0.00,,,0.00,Wunderground v.1.15,2013-01-22 19:05:00,
2013-01-22 14:11:00,11.9,6.4,29.92,North,350,4.0,9.0,78,0.00,,,0.00,Wunderground v.1.15,2013-01-22 19:11:00,
2013-01-22 14:16:00,11.7,6.4,29.92,North,5,7.0,12.0,79,0.00,,,0.00,Wunderground v.1.15,2013-01-22 19:16:00,
2013-01-22 14:21:00,11.4,6.2,29.92,North,351,4.0,11.0,79,0.00,,,0.00,Wunderground v.1.15,2013-01-22 19:21:00,
2013-01-22 14:26:00,10.7,5.2,29.93,North,355,5.0,15.0,78,0.00,,,0.00,Wunderground v.1.15,2013-01-22 19:26:00,
2013-01-22 14:31:00,10.5,5.3,29.93,North,355,7.0,10.0,79,0.00,,,0.00,Wunderground v.1.15,2013-01-22 19:31:00,
2013-01-22 14:37:00,10.5,5.3,29.93,North,351,3.0,11.0,79,0.00,,,0.00,Wunderground v.1.15,2013-01-22 19:37:00,
2013-01-22 14:42:00,10.5,5.0,29.95,NNW,348,4.0,10.0,78,0.00,,,0.00,Wunderground v.1.15,2013-01-22 19:42:00,
2013-01-22 14:47:00,10.5,5.0,29.95,North,5,3.0,10.0,78,0.00,,,0.00,Wunderground v.1.15,2013-01-22 19:47:00,
2013-01-22 14:52:00,10.5,5.3,29.95,North,5,5.0,11.0,79,0.00,,,0.00,Wunderground v.1.15,2013-01-22 19:52:00,
2013-01-22 14:57:00,10.7,5.5,29.95,North,360,2.0,11.0,79,0.00,,,0.00,Wunderground v.1.15,2013-01-22 19:57:00,
2013-01-22 15:02:00,10.7,5.5,29.95,North,5,4.0,10.0,79,0.00,,,0.00,Wunderground v.1.15,2013-01-22 20:02:00,
2013-01-22 15:07:00,11.2,6.2,29.95,North,5,4.0,10.0,80,0.00,,,0.00,Wunderground v.1.15,2013-01-22 20:07:00,
2013-01-22 15:12:00,11.6,6.3,29.96,North,9,3.0,6.0,79,0.00,,,0.00,Wunderground v.1.15,2013-01-22 20:12:00,
2013-01-22 15:17:00,11.6,6.1,29.96,North,9,4.0,6.0,78,0.00,,,0.00,Wunderground v.1.15,2013-01-22 20:17:00,
2013-01-22 15:22:00,11.7,5.9,29.96,North,9,3.0,5.0,77,0.00,,,0.00,Wunderground v.1.15,2013-01-22 20:22:00,
2013-01-22 15:27:00,11.7,5.6,29.97,North,9,4.0,6.0,76,0.00,,,0.00,Wunderground v.1.15,2013-01-22 20:27:00,
2013-01-22 15:32:00,11.7,5.3,29.97,NNE,19,3.0,7.0,75,0.00,,,0.00,Wunderground v.1.15,2013-01-22 20:32:00,
2013-01-22 15:37:00,12.1,5.4,29.97,NNE,20,4.0,7.0,74,0.00,,,0.00,Wunderground v.1.15,2013-01-22 20:37:00,
2013-01-22 15:42:00,12.4,5.4,29.97,NNE,20,3.0,5.0,73,0.00,,,0.00,Wunderground v.1.15,2013-01-22 20:42:00,
2013-01-22 15:47:00,12.6,4.7,29.97,North,360,1.0,7.0,70,0.00,,,0.00,Wunderground v.1.15,2013-01-22 20:47:00,
2013-01-22 15:52:00,12.9,4.3,29.97,NNW,346,1.0,7.0,68,0.00,,,0.00,Wunderground v.1.15,2013-01-22 20:52:00,
2013-01-22 15:57:00,12.9,4.0,29.97,NNW,344,1.0,7.0,67,0.00,,,0.00,Wunderground v.1.15,2013-01-22 20:57:00,
2013-01-22 16:03:00,12.8,3.6,29.97,NNW,346,5.0,9.0,66,0.00,,,0.00,Wunderground v.1.15,2013-01-22 21:03:00,
2013-01-22 16:08:00,12.6,3.4,29.97,NNW,344,0.0,9.0,66,0.00,,,0.00,Wunderground v.1.15,2013-01-22 21:08:00,
2013-01-22 16:13:00,12.4,3.5,29.98,NNW,344,0.0,2.0,67,0.00,,,0.00,Wunderground v.1.15,2013-01-22 21:13:00,
2013-01-22 16:18:00,12.4,3.5,29.98,NNW,348,1.0,5.0,67,0.00,,,0.00,Wunderground v.1.15,2013-01-22 21:18:00,
2013-01-22 16:23:00,12.4,1.5,29.98,NNW,336,10.0,13.0,61,0.00,,,0.00,Wunderground v.1.15,2013-01-22 21:23:00,
2013-01-22 16:28:00,12.8,-1.9,29.99,NW,317,9.0,13.0,51,0.00,,,0.00,Wunderground v.1.15,2013-01-22 21:28:00,
2013-01-22 16:32:00,12.8,-3.7,29.99,NW,317,9.0,9.0,47,0.00,,,0.00,Wunderground v.1.15,2013-01-22 21:32:00,
2013-01-22 16:37:00,12.8,-5.5,29.99,NNW,328,9.0,12.0,43,0.00,,,0.00,Wunderground v.1.15,2013-01-22 21:37:00,
2013-01-22 16:42:00,12.8,-4.6,30.00,NW,318,4.0,5.0,45,0.00,,,0.00,Wunderground v.1.15,2013-01-22 21:42:00,
2013-01-22 16:47:00,12.6,-5.2,30.00,NW,323,6.0,14.0,44,0.00,,,0.00,Wunderground v.1.15,2013-01-22 21:47:00,
2013-01-22 16:52:00,12.4,-6.4,30.00,NW,319,6.0,11.0,42,0.00,,,0.00,Wunderground v.1.15,2013-01-22 21:52:00,
2013-01-22 16:57:00,12.3,-7.0,30.00,NW,304,11.0,14.0,41,0.00,,,0.00,Wunderground v.1.15,2013-01-22 21:57:00,
2013-01-22 17:02:00,12.1,-6.6,30.00,NNW,331,6.0,11.0,42,0.00,,,0.00,Wunderground v.1.15,2013-01-22 22:02:00,
2013-01-22 17:07:00,11.9,-5.9,30.00,NW,326,9.0,15.0,44,0.00,,,0.00,Wunderground v.1.15,2013-01-22 22:07:00,
2013-01-22 17:12:00,11.7,-6.1,30.01,NNW,329,1.0,14.0,44,0.00,,,0.00,Wunderground v.1.15,2013-01-22 22:12:00,
2013-01-22 17:17:00,11.7,-9.1,30.01,WNW,298,13.0,17.0,38,0.00,,,0.00,Wunderground v.1.15,2013-01-22 22:17:00,
2013-01-22 17:22:00,11.6,-9.2,30.01,NNW,329,4.0,15.0,38,0.00,,,0.00,Wunderground v.1.15,2013-01-22 22:22:00,
2013-01-22 17:27:00,11.4,-8.8,30.02,NW,322,8.0,15.0,39,0.00,,,0.00,Wunderground v.1.15,2013-01-22 22:27:00,
2013-01-22 17:32:00,11.2,-9.5,30.02,NW,321,14.0,14.0,38,0.00,,,0.00,Wunderground v.1.15,2013-01-22 22:32:00,
2013-01-22 17:37:00,11.1,-9.6,30.02,NNW,331,14.0,17.0,38,0.00,,,0.00,Wunderground v.1.15,2013-01-22 22:37:00,
2013-01-22 17:42:00,10.9,-11.5,30.03,NW,325,17.0,21.0,35,0.00,,,0.00,Wunderground v.1.15,2013-01-22 22:42:00,
2013-01-22 17:47:00,11.1,-11.3,30.03,NW,316,11.0,21.0,35,0.00,,,0.00,Wunderground v.1.15,2013-01-22 22:47:00,
2013-01-22 17:52:00,10.9,-11.5,30.03,WNW,298,13.0,16.0,35,0.00,,,0.00,Wunderground v.1.15,2013-01-22 22:52:00,
2013-01-22 17:57:00,10.9,-11.5,30.04,NW,317,10.0,18.0,35,0.00,,,0.00,Wunderground v.1.15,2013-01-22 22:57:00,
2013-01-22 18:02:00,10.9,-11.5,30.04,NW,319,12.0,16.0,35,0.00,,,0.00,Wunderground v.1.15,2013-01-22 23:02:00,
2013-01-22 18:07:00,10.7,-11.1,30.04,NNW,328,8.0,16.0,36,0.00,,,0.00,Wunderground v.1.15,2013-01-22 23:07:00,
2013-01-22 18:13:00,10.7,-8.9,30.05,NW,324,3.0,10.0,40,0.00,,,0.00,Wunderground v.1.15,2013-01-22 23:13:00,
2013-01-22 18:18:00,10.5,-7.2,30.05,NW,325,11.0,12.0,44,0.00,,,0.00,Wunderground v.1.15,2013-01-22 23:18:00,
2013-01-22 18:23:00,10.5,-7.6,30.05,NNW,329,9.0,14.0,43,0.00,,,0.00,Wunderground v.1.15,2013-01-22 23:23:00,
2013-01-22 18:28:00,10.2,-8.4,30.06,NW,309,3.0,16.0,42,0.00,,,0.00,Wunderground v.1.15,2013-01-22 23:28:00,
2013-01-22 18:33:00,10.0,-8.1,30.06,NNW,332,7.0,20.0,43,0.00,,,0.00,Wunderground v.1.15,2013-01-22 23:33:00,
2013-01-22 18:38:00,9.7,-8.8,30.06,NNW,337,13.0,20.0,42,0.00,,,0.00,Wunderground v.1.15,2013-01-22 23:38:00,
2013-01-22 18:43:00,9.5,-9.5,30.06,NW,320,2.0,18.0,41,0.00,,,0.00,Wunderground v.1.15,2013-01-22 23:43:00,
2013-01-22 18:48:00,9.3,-7.8,30.06,NW,324,14.0,19.0,45,0.00,,,0.00,Wunderground v.1.15,2013-01-22 23:48:00,
2013-01-22 18:53:00,9.2,-7.9,30.06,NW,315,2.0,10.0,45,0.00,,,0.00,Wunderground v.1.15,2013-01-22 23:53:00,
2013-01-22 18:58:00,9.2,-8.8,30.06,NW,321,6.0,15.0,43,0.00,,,0.00,Wunderground v.1.15,2013-01-22 23:58:00,
2013-01-22 19:03:00,9.2,-8.3,30.06,NNW,327,3.0,14.0,44,0.00,,,0.00,Wunderground v.1.15,2013-01-23 00:03:00,
2013-01-22 19:08:00,9.0,-8.5,30.06,NNW,329,1.0,14.0,44,0.00,,,0.00,Wunderground v.1.15,2013-01-23 00:08:00,
2013-01-22 19:13:00,8.8,-7.8,30.06,NNW,329,3.0,10.0,46,0.00,,,0.00,Wunderground v.1.15,2013-01-23 00:13:00,
2013-01-22 19:19:00,8.6,-8.0,30.06,NNW,330,6.0,10.0,46,0.00,,,0.00,Wunderground v.1.15,2013-01-23 00:19:00,
2013-01-22 19:24:00,8.4,-7.7,30.06,NNW,328,0.0,4.0,47,0.00,,,0.00,Wunderground v.1.15,2013-01-23 00:24:00,
2013-01-22 19:29:00,8.1,-8.0,30.07,NNW,328,2.0,6.0,47,0.00,,,0.00,Wunderground v.1.15,2013-01-23 00:29:00,
2013-01-22 19:34:00,7.7,-8.4,30.07,NNW,328,1.0,2.0,47,0.00,,,0.00,Wunderground v.1.15,2013-01-23 00:34:00,
2013-01-22 19:39:00,7.7,-8.4,30.07,NNW,328,3.0,5.0,47,0.00,,,0.00,Wunderground v.1.15,2013-01-23 00:39:00,
2013-01-22 19:44:00,7.7,-8.8,30.07,NNW,332,0.0,6.0,46,0.00,,,0.00,Wunderground v.1.15,2013-01-23 00:44:00,
2013-01-22 19:49:00,7.7,-8.4,30.07,NNW,336,3.0,6.0,47,0.00,,,0.00,Wunderground v.1.15,2013-01-23 00:49:00,
2013-01-22 19:54:00,7.7,-8.4,30.07,NNW,338,3.0,6.0,47,0.00,,,0.00,Wunderground v.1.15,2013-01-23 00:54:00,
2013-01-22 19:59:00,7.6,-8.5,30.06,NNW,338,0.0,6.0,47,0.00,,,0.00,Wunderground v.1.15,2013-01-23 00:59:00,
2013-01-22 20:04:00,7.6,-8.0,30.06,NNW,337,2.0,3.0,48,0.00,,,0.00,Wunderground v.1.15,2013-01-23 01:04:00,
2013-01-22 20:09:00,7.6,-8.5,30.06,NNW,337,0.0,4.0,47,0.00,,,0.00,Wunderground v.1.15,2013-01-23 01:09:00,
2013-01-22 20:14:00,7.4,-8.2,30.06,NNW,338,2.0,9.0,48,0.00,,,0.00,Wunderground v.1.15,2013-01-23 01:14:00,
2013-01-22 20:19:00,7.4,-8.2,30.06,NNW,340,2.0,9.0,48,0.00,,,0.00,Wunderground v.1.15,2013-01-23 01:19:00,
2013-01-22 20:24:00,7.2,-8.4,30.06,NNW,340,0.0,3.0,48,0.00,,,0.00,Wunderground v.1.15,2013-01-23 01:24:00,
2013-01-22 20:29:00,7.0,-8.2,30.07,NNW,340,2.0,4.0,49,0.00,,,0.00,Wunderground v.1.15,2013-01-23 01:29:00,
2013-01-22 20:34:00,6.9,-8.3,30.07,NNW,340,0.0,3.0,49,0.00,,,0.00,Wunderground v.1.15,2013-01-23 01:34:00,
2013-01-22 20:39:00,6.9,-8.3,30.07,NNW,340,1.0,5.0,49,0.00,,,0.00,Wunderground v.1.15,2013-01-23 01:39:00,
2013-01-22 20:44:00,6.7,-8.0,30.06,NNW,340,0.0,4.0,50,0.00,,,0.00,Wunderground v.1.15,2013-01-23 01:44:00,
2013-01-22 20:50:00,6.7,-8.0,30.06,NNW,340,3.0,3.0,50,0.00,,,0.00,Wunderground v.1.15,2013-01-23 01:50:00,
2013-01-22 20:55:00,6.7,-8.4,30.06,NNW,340,1.0,3.0,49,0.00,,,0.00,Wunderground v.1.15,2013-01-23 01:55:00,
2013-01-22 21:00:00,6.5,-8.6,30.07,NNW,340,0.0,1.0,49,0.00,,,0.00,Wunderground v.1.15,2013-01-23 02:00:00,
2013-01-22 21:05:00,6.3,-8.4,30.07,NNW,340,0.0,1.0,50,0.00,,,0.00,Wunderground v.1.15,2013-01-23 02:05:00,
2013-01-22 21:10:00,6.1,-8.6,30.07,NNW,340,0.0,0.0,50,0.00,,,0.00,Wunderground v.1.15,2013-01-23 02:10:00,
2013-01-22 21:15:00,6.0,-8.3,30.07,NNW,340,0.0,2.0,51,0.00,,,0.00,Wunderground v.1.15,2013-01-23 02:15:00,
2013-01-22 21:20:00,5.8,-8.1,30.07,NNW,340,0.0,0.0,52,0.00,,,0.00,Wunderground v.1.15,2013-01-23 02:20:00,
2013-01-22 21:25:00,6.0,-7.5,30.07,NNW,340,1.0,2.0,53,0.00,,,0.00,Wunderground v.1.15,2013-01-23 02:25:00,
2013-01-22 21:30:00,6.1,-7.8,30.07,NNW,340,0.0,0.0,52,0.00,,,0.00,Wunderground v.1.15,2013-01-23 02:30:00,
2013-01-22 21:35:00,6.5,-7.8,30.07,NNW,340,6.0,6.0,51,0.00,,,0.00,Wunderground v.1.15,2013-01-23 02:35:00,
2013-01-22 21:40:00,6.9,-7.8,30.07,NNW,335,3.0,3.0,50,0.00,,,0.00,Wunderground v.1.15,2013-01-23 02:40:00,
2013-01-22 21:45:00,7.0,-7.8,30.07,NNW,335,3.0,6.0,50,0.00,,,0.00,Wunderground v.1.15,2013-01-23 02:45:00,
2013-01-22 21:50:00,7.0,-7.8,30.07,NNW,333,5.0,5.0,50,0.00,,,0.00,Wunderground v.1.15,2013-01-23 02:50:00,
2013-01-22 21:55:00,7.2,-10.2,30.07,NW,314,12.0,16.0,44,0.00,,,0.00,Wunderground v.1.15,2013-01-23 02:55:00,
2013-01-22 22:00:00,7.6,-10.3,30.07,NNW,334,6.0,8.0,43,0.00,,,0.00,Wunderground v.1.15,2013-01-23 03:00:00,
2013-01-22 22:05:00,7.6,-10.8,30.07,WNW,300,7.0,17.0,42,0.00,,,0.00,Wunderground v.1.15,2013-01-23 03:05:00,
2013-01-22 22:10:00,7.6,-10.3,30.07,NW,307,9.0,9.0,43,0.00,,,0.00,Wunderground v.1.15,2013-01-23 03:10:00,
2013-01-22 22:15:00,7.6,-10.8,30.08,WNW,291,4.0,12.0,42,0.00,,,0.00,Wunderground v.1.15,2013-01-23 03:15:00,
2013-01-22 22:21:00,7.4,-10.0,30.08,WNW,296,3.0,7.0,44,0.00,,,0.00,Wunderground v.1.15,2013-01-23 03:21:00,
2013-01-22 22:26:00,7.4,-10.5,30.08,WNW,302,5.0,14.0,43,0.00,,,0.00,Wunderground v.1.15,2013-01-23 03:26:00,
2013-01-22 22:31:00,7.4,-10.9,30.08,WNW,296,12.0,12.0,42,0.00,,,0.00,Wunderground v.1.15,2013-01-23 03:31:00,
2013-01-22 22:36:00,7.6,-9.8,30.08,WNW,296,10.0,13.0,44,0.00,,,0.00,Wunderground v.1.15,2013-01-23 03:36:00,
2013-01-22 22:41:00,7.4,-10.5,30.09,NW,308,6.0,13.0,43,0.00,,,0.00,Wunderground v.1.15,2013-01-23 03:41:00,
2013-01-22 22:46:00,7.4,-10.0,30.09,NW,312,4.0,13.0,44,0.00,,,0.00,Wunderground v.1.15,2013-01-23 03:46:00,
2013-01-22 22:51:00,7.4,-10.0,30.09,WNW,302,1.0,11.0,44,0.00,,,0.00,Wunderground v.1.15,2013-01-23 03:51:00,
2013-01-22 22:56:00,7.2,-9.3,30.09,NW,304,3.0,11.0,46,0.00,,,0.00,Wunderground v.1.15,2013-01-23 03:56:00,
2013-01-22 23:01:00,7.0,-9.0,30.09,NW,304,1.0,3.0,47,0.00,,,0.00,Wunderground v.1.15,2013-01-23 04:01:00,
2013-01-22 23:06:00,6.9,-9.6,30.09,NW,304,3.0,5.0,46,0.00,,,0.00,Wunderground v.1.15,2013-01-23 04:06:00,
2013-01-22 23:11:00,6.7,-9.3,30.09,NW,320,1.0,6.0,47,0.00,,,0.00,Wunderground v.1.15,2013-01-23 04:11:00,
2013-01-22 23:17:00,6.7,-8.9,30.09,NW,326,2.0,7.0,48,0.00,,,0.00,Wunderground v.1.15,2013-01-23 04:17:00,
2013-01-22 23:22:00,6.7,-6.5,30.09,North,355,1.0,11.0,54,0.00,,,0.00,Wunderground v.1.15,2013-01-23 04:22:00,
2013-01-22 23:27:00,6.3,-5.3,30.09,NNE,25,3.0,11.0,58,0.00,,,0.00,Wunderground v.1.15,2013-01-23 04:27:00,
2013-01-22 23:32:00,6.0,-4.6,30.09,North,351,7.0,12.0,61,0.00,,,0.00,Wunderground v.1.15,2013-01-23 04:32:00,
2013-01-22 23:37:00,5.6,-5.0,30.09,NNW,345,1.0,12.0,61,0.00,,,0.00,Wunderground v.1.15,2013-01-23 04:37:00,
2013-01-22 23:42:00,5.2,-5.0,30.09,North,9,10.0,12.0,62,0.00,,,0.00,Wunderground v.1.15,2013-01-23 04:42:00,
2013-01-22 23:47:00,5.0,-4.9,30.09,North,351,10.0,12.0,63,0.00,,,0.00,Wunderground v.1.15,2013-01-23 04:47:00,
2013-01-22 23:52:00,4.8,-4.7,30.09,NNE,18,14.0,14.0,64,0.00,,,0.00,Wunderground v.1.15,2013-01-23 04:52:00,
2013-01-22 23:57:00,4.7,-4.8,30.09,NNW,348,1.0,14.0,64,0.00,,,0.00,Wunderground v.1.15,2013-01-23 04:57:00,